| time (UTC) | temp F | wind direction | speed knots | gust knots | rain 1hr in | rain 24hr in | rain mn in | humidity % | barometer mb |
| 20260503110615 | 29 | 142 | 0.9 | 0.9 | 0.00 | 0.00 | 0.00 | 99 | 1015.2 |
| 20260503110112 | 28 | 141 | 0.9 | 0.9 | 0.00 | 0.00 | 0.00 | 99 | 1015.4 |
| 20260503090502 | 29 | 142 | 0.0 | 0.0 | 0.00 | 0.00 | 0.00 | 99 | 1015.0 |
| 20260503081428 | 30 | 150 | 0.0 | 0.9 | 0.00 | 0.00 | 0.00 | 99 | 1014.8 |
| 20260503080925 | 30 | 151 | 0.0 | 0.0 | 0.00 | 0.00 | 0.00 | 99 | 1014.9 |
| 20260503080421 | 30 | 141 | 0.9 | 0.9 | 0.00 | 0.00 | 0.00 | 99 | 1014.8 |
| 20260503072858 | 32 | 155 | 0.0 | 0.9 | 0.00 | 0.00 | 0.00 | 98 | 1014.6 |
| 20260503072355 | 32 | 152 | 0.0 | 0.0 | 0.00 | 0.00 | 0.00 | 98 | 1014.7 |
| 20260503071851 | 32 | 152 | 0.0 | 0.0 | 0.00 | 0.00 | 0.00 | 98 | 1014.6 |
| 20260503071349 | 32 | 159 | 0.0 | 0.0 | 0.00 | 0.00 | 0.00 | 98 | 1014.8 |
| 20260503070844 | 32 | 156 | 0.0 | 0.0 | 0.00 | 0.00 | 0.00 | 98 | 1014.6 |
| 20260503070343 | 32 | 157 | 0.0 | 0.0 | 0.00 | 0.00 | 0.00 | 98 | 1014.5 |
| 20260503060314 | 32 | 160 | 0.0 | 0.0 | 0.00 | 0.00 | 0.00 | 98 | 1014.8 |
| 20260503054801 | 32 | 150 | 0.0 | 0.0 | 0.00 | 0.00 | 0.00 | 98 | 1014.8 |
| 20260503054257 | 32 | 148 | 0.0 | 0.9 | 0.00 | 0.00 | 0.00 | 98 | 1014.9 |
| 20260503053755 | 32 | 152 | 0.0 | 0.9 | 0.00 | 0.00 | 0.00 | 98 | 1014.8 |
| 20260503053254 | 32 | 150 | 0.0 | 0.9 | 0.00 | 0.00 | 0.00 | 98 | 1014.9 |
| 20260503052749 | 32 | 154 | 0.0 | 0.0 | 0.00 | 0.00 | 0.00 | 98 | 1014.9 |
| 20260503052248 | 32 | 152 | 0.0 | 0.0 | 0.00 | 0.00 | 0.00 | 97 | 1014.9 |
| 20260503051742 | 32 | 154 | 0.0 | 0.0 | 0.00 | 0.00 | 0.00 | 97 | 1014.9 |
| 20260503051240 | 32 | 152 | 0.0 | 0.0 | 0.00 | 0.00 | 0.00 | 97 | 1014.9 |
| 20260503050736 | 32 | 143 | 0.0 | 0.9 | 0.00 | 0.00 | 0.00 | 97 | 1014.9 |
| 20260503050232 | 32 | 142 | 0.0 | 0.9 | 0.00 | 0.00 | 0.00 | 97 | 1014.9 |
| 20260503045730 | 32 | 144 | 0.0 | 0.9 | 0.00 | 0.00 | 0.00 | 97 | 1015.1 |
| 20260503045228 | 32 | 138 | 0.9 | 0.9 | 0.00 | 0.00 | 0.00 | 97 | 1014.9 |
| 20260503044724 | 32 | 141 | 0.0 | 0.0 | 0.00 | 0.00 | 0.00 | 97 | 1014.7 |
| 20260503044221 | 32 | 141 | 0.0 | 0.9 | 0.00 | 0.00 | 0.00 | 97 | 1015.0 |
| 20260503043718 | 32 | 141 | 0.0 | 0.0 | 0.00 | 0.00 | 0.00 | 97 | 1015.1 |
| 20260503043216 | 32 | 140 | 0.0 | 0.9 | 0.00 | 0.00 | 0.00 | 97 | 1015.0 |
| 20260503042711 | 32 | 141 | 0.0 | 0.0 | 0.00 | 0.00 | 0.00 | 97 | 1014.9 |
| 20260503042208 | 32 | 141 | 0.0 | 0.9 | 0.00 | 0.00 | 0.00 | 97 | 1015.1 |
| 20260503041704 | 32 | 141 | 0.0 | 0.9 | 0.00 | 0.00 | 0.00 | 96 | 1014.8 |
| 20260503041202 | 33 | 141 | 0.0 | 0.9 | 0.00 | 0.00 | 0.00 | 96 | 1015.1 |
| 20260503040659 | 33 | 141 | 0.0 | 0.0 | 0.00 | 0.00 | 0.00 | 96 | 1015.0 |
| 20260503040157 | 33 | 141 | 0.0 | 0.0 | 0.00 | 0.00 | 0.00 | 96 | 1015.0 |
| 20260503035653 | 33 | 140 | 0.0 | 0.9 | 0.00 | 0.00 | 0.00 | 96 | 1015.0 |
| 20260503035151 | 33 | 138 | 0.9 | 0.9 | 0.00 | 0.00 | 0.00 | 96 | 1015.1 |
| 20260503034648 | 33 | 141 | 0.0 | 0.9 | 0.00 | 0.00 | 0.00 | 96 | 1015.1 |
| 20260503034145 | 34 | 142 | 0.0 | 0.9 | 0.00 | 0.00 | 0.00 | 95 | 1014.7 |
| 20260503033642 | 34 | 143 | 0.0 | 0.0 | 0.00 | 0.00 | 0.00 | 95 | 1015.1 |
| 20260503033140 | 34 | 142 | 0.9 | 0.9 | 0.00 | 0.00 | 0.00 | 95 | 1015.0 |
| 20260503032638 | 34 | 143 | 0.0 | 0.0 | 0.00 | 0.00 | 0.00 | 95 | 1014.9 |
| 20260503032136 | 35 | 143 | 0.0 | 0.0 | 0.00 | 0.00 | 0.00 | 95 | 1015.0 |
| 20260503031633 | 35 | 142 | 0.0 | 0.9 | 0.00 | 0.00 | 0.00 | 94 | 1015.1 |
| 20260503031131 | 35 | 143 | 0.0 | 0.0 | 0.00 | 0.00 | 0.00 | 94 | 1015.0 |